Regional Weather Roundup
Issued by NWS

Home | Current Version | Previous Version | Text Only | Print | Product List | Glossary Off
Versions: 1 2 3 4 5 6 7 8 9 10 11 12 13 14 15 16 17 18 19 20 21 22 23 24 25 26 27 28 29 30 31 32 33 34 35 36 37 38 39 40 41 42 43 44 45 46 47 48 49 50

000
ASUS45 KBOU 311007
RWRCO

WEATHER ROUNDUP FOR COLORADO
NATIONAL WEATHER SERVICE DENVER/BOULDER CO
400 AM MDT MON AUG 31 2015

NOTE: "FAIR" INDICATES FEW OR NO CLOUDS BELOW 12000 FEET WITH NO
SIGNIFICANT WEATHER AND/OR OBSTRUCTIONS TO VISIBILITY.

COZ001>005-013-030-031-311100-
...NORTHWEST COLORADO...

CITY           SKY/WX    TMP DP  RH WIND       PRES   REMARKS
CRAIG          CLOUDY    58  50  75 NE5       30.22R
HAYDEN         NOT AVBL
MEEKER         NOT AVBL
MOUNT WERNER   NOT AVBL
STEAMBOAT SPGS CLOUDY    52  50  93 S3        30.24F
WALDEN         CLOUDY    52  45  76 CALM      30.31F
$$

COZ006>008-011-311100-
...WEST CENTRAL VALLEYS...

CITY           SKY/WX    TMP DP  RH WIND       PRES   REMARKS
GRAND JUNCTION MOCLDY    63  57  81 E10       30.11F
MONTROSE       CLOUDY    59  56  89 SE7       30.20F
EAGLE          CLOUDY    57  55  94 SE7       30.26F
RIFLE          LGT RAIN  60  57  89 CALM      30.19F
DELTA          RAIN      64  58  80 N7        30.16S
NUCLA          CLOUDY    64  50  59 E12       30.20S
$$

COZ017>023-064>068-311100-
...SOUTHWEST COLORADO...

CITY           SKY/WX    TMP DP  RH WIND       PRES   REMARKS
DURANGO        PTCLDY    58  48  69 CALM      30.22S
CORTEZ         CLEAR     57  51  80 E7        30.19S
PAGOSA SPRINGS PTCLDY    58  46  63 NW3       30.29S
TELLURIDE      CLOUDY    55  47  74 CALM      30.40S
WOLF CREEK PAS CLOUDY    45  37  76 SW14      30.58F
$$

COZ009-010-012-014-032>034-037-058>063-311100-
...CENTRAL COLORADO...

CITY           SKY/WX    TMP DP  RH WIND       PRES   REMARKS
ASPEN          LGT RAIN  54  52  93 SW5       30.33F
BUENA VISTA    CLOUDY    61  43  52 NW9       30.28S
COPPER MTN     CLOUDY    45  41  87 SW5G18    30.57F HAZE
BERTHOUD PASS  LGT RAIN  37  27  65 NW17G28   30.59S VSB<1/4
COTTONWOOD PAS NOT AVBL
GUNNISON       CLOUDY    54  46  76 NE3       30.33S
KREMMLING      CLOUDY    55  48  76 CALM      30.29F
LEADVILLE      LGT RAIN  48  46  93 N9        30.42S
MONARCH PASS   CLOUDY    43  39  87 W20       30.64F
SALIDA         CLOUDY    64  43  46 W3        30.31F
SUNLIGHT       RAIN      48  46  93 CALM      30.50F
WILKERSON PASS MOCLDY    50  36  57 W10G17    30.52S
$$

COZ069>075-311100-
...SAN LUIS VALLEY/SANGRE DE CRISTO MOUNTAINS...

CITY           SKY/WX    TMP DP  RH WIND       PRES   REMARKS
ALAMOSA        CLOUDY    54  43  66 N5        30.24F
LA VETA PASS   MOCLDY    52  41  66 S10G18    30.41R
SAGUACHE       MOCLDY    59  43  55 CALM      30.29S
$$

COZ035-036-038>040-311100-
...NORTHERN COLORADO FRONT RANGE...

CITY           SKY/WX    TMP DP  RH WIND       PRES   REMARKS
DENVER INTL AP MOCLDY    70  45  40 NW9       30.03R
DMNS CITY PARK   N/A     66  48  53 E9        30.03R
AURORA         MOCLDY    67  45  45 N2        30.06R
FRONT RANGE AP NOT AVBL
ERIE MUNI ARPT MOCLDY    65  49  55 CALM      30.01S
BOULDER MUN AP MOCLDY    75  45  33 SW7       30.01S
CENTENNIAL     MOCLDY    68  45  43 CALM      30.07R
BROOMFIELD     MOCLDY    73  43  33 W12       30.05R
FORT COLLINS   CLOUDY    73  52  46 NW5       30.01R
LONGMONT       CLOUDY    69  56  64 CALM      30.01S
$$

COZ041-046-047-076>085-087-088-311100-
...PIKES PEAK/PALMER DIVIDE AND SOUTHERN FOOTHILLS...

CITY           SKY/WX    TMP DP  RH WIND       PRES   REMARKS
COLO. SPRINGS  PTCLDY    65  44  46 W6        30.07S
A. F. ACADEMY  PTCLDY    68  39  34 VRB6      30.10R
ELLICOTT       NOT AVBL
FALCON         PTCLDY    69  38  33 MISG      30.12S
FORT CARSON    PTCLDY    61  47  60 W3        30.03S
LIMON          PTCLDY    51  47  86 CALM      30.02F
MONUMENT HILL  PTCLDY    55  39  54 NW6       30.16R
TRINIDAD       CLEAR     68  49  50 W15       30.06S
$$

COZ042>045-048>051-090-091-311100-
...NORTHEAST COLORADO...

CITY           SKY/WX    TMP DP  RH WIND       PRES   REMARKS
GREELEY ARPT   CLOUDY    64  52  63 CALM      29.99S
AKRON          PTCLDY    65  47  52 S10       29.96F
BURLINGTON     CLEAR     60  49  66 S12       29.96F
WRAY           CLEAR     68  48  48 MISG      29.92F
STERLING       PTCLDY    63  50  63 NW5       29.93R
HOLYOKE        CLEAR     59  46  63 SE3       29.94F
FORT MORGAN    PTCLDY    64  49  60 N6        29.97R
$$

COZ086-089-092>099-311100-
...SOUTHEAST COLORADO...

CITY           SKY/WX    TMP DP  RH WIND       PRES   REMARKS
PUEBLO         PTCLDY    63  48  58 CALM      29.96S
LA JUNTA       CLEAR     66  52  60 E6        29.92F
LAMAR          CLEAR     57  51  80 E7        29.90F HAZE
SPRINGFIELD    NOT AVBL
$$



USA.gov is the U.S. government's official web portal to all federal, state and local government web resources and services.